User: anonymous   Login
Location: Unspecified
(0.0000°N, 0.0000°E)
Time: 17:23:05
(UTC+00:00)
Language:

BUGSAT 1 - Orbit

View from above orbital plane
View from above orbital plane
View from above satellite
View from above satellite

Ground track
Ground track

The orbit data is extracted from the following two-line orbital elements,

1 40014U 14033E   21336.92660104  .00001611  00000-0  14821-3 0  9991
2 40014  98.1278 322.6049 0030600 330.3421  29.6072 14.95966428406759
Epoch (UTC): 02 December 2021 22:14:18
Eccentricity: 0.0030600
inclination: 98.1278°
perigee height: 558 km
apogee height: 600 km
right ascension of ascending node: 322.6049°
argument of perigee: 330.3421°
revolutions per day: 14.95966428
mean anomaly at epoch: 29.6072°
orbit number at epoch: 40675

The dashed part of the orbit path shows where the satellite is in the earth's shadow,  

DLR